www.pogodaiklimat.ru

Погода и климат >> Архив погоды >> Австралия >> Северная территория >> Порт Китс


ПОГОДА в Порт Китс

  • Прогноз погоды в Порт Китс
  • Монитор погоды в Порт Китс

АРХИВ ПОГОДЫ в Порт Китс

Время (UTC), дата Ветер
(напр.,м/с)
 
Видим.   Явления Облачность Т
(С)
Тd
(С)
f
(%)
Тe
(С)
Тes
(С)
Комфортность P
(гПа)
Po
(гПа)
Тmin
(С)
Tmax
(С)
R
(мм)
R24
(мм)
S
(см)
05 10.07 ЮВ 3 н/о н/о +32.0 +8.3 23 +31 +31 жарко 1013.7 1010.3
06 10.07 ЮВ 4 н/о н/о +31.6 +7.3 22 +30 +30 жарко 1013.1 1009.7
08 10.07 С 4 н/о н/о +29.8 +10.9 31 +30 +30 жарко 1013.6 1010.2
09 10.07 СВ 2 н/о н/о +27.9 +11.5 36 +29 +29 жарко 1014.3 1010.9
11 10.07 Ю 2 н/о н/о +23.7 +9.3 40 +25 +25 комфорт 1015.6 1012.2
12 10.07 Ю 3 н/о н/о +24.8 +8.3 35 +25 +25 комфорт 1016.1 1012.7
14 10.07 ЮВ 4 н/о н/о +24.3 +8.7 37 +25 +25 комфорт 1016.0 1012.6 +32.8
15 10.07 ЮВ 3 н/о н/о +23.3 +8.2 38 +24 +24 комфорт 1015.9 1012.5
17 10.07 ЮВ 4 н/о н/о +23.4 +7.5 36 +24 +24 комфорт 1015.7 1012.3
18 10.07 ЮВ 3 н/о н/о +22.0 +7.0 38 +23 +23 комфорт 1015.7 1012.3
20 10.07 ЮВ 5 н/о н/о +22.5 +5.4 33 +23 +23 комфорт 1016.2 1012.8
21 10.07 ЮВ 5 н/о н/о +22.0 +5.0 33 +22 +22 комфорт 1016.8 1013.4
23 10.07 В 4 н/о н/о +23.3 +4.8 30 +23 +23 комфорт 1018.5 1015.1
00 11.07 В 7 н/о н/о +25.6 +5.2 27 +25 +25 комфорт 1019.0 1015.6
02 11.07 В 6 н/о н/о +28.9 +6.3 24 +28 +28 жарко 1018.3 1014.9 +21.2
03 11.07 ЮВ 6 н/о н/о +30.4 +6.3 22 +29 +29 жарко 1017.2 1013.8
05 11.07 Ю 5 н/о н/о +30.5 +5.0 20 +29 +29 жарко 1015.0 1011.6
06 11.07 ЮВ 4 н/о н/о +30.6 +4.4 19 +29 +29 жарко 1014.3 1010.9
08 11.07 ЮВ 4 н/о н/о +29.9 +4.5 20 +28 +28 жарко 1014.8 1011.4
09 11.07 Ю 3 н/о н/о +28.1 +5.0 23 +27 +27 жарко 1015.5 1012.1
11 11.07 Ю 3 н/о н/о +24.0 +7.2 34 +24 +24 комфорт 1017.0 1013.6
12 11.07 Ю 3 н/о н/о +23.0 +7.9 38 +24 +24 комфорт 1017.5 1014.1
14 11.07 Ю 3 н/о н/о +22.9 +7.1 36 +24 +24 комфорт 1017.3 1013.9 +31.9
15 11.07 Ю 3 н/о н/о +22.8 +7.4 37 +24 +24 комфорт 1017.4 1014.0
17 11.07 Ю 3 н/о н/о +21.3 +9.2 46 +23 +23 комфорт 1017.0 1013.6
18 11.07 Ю 3 н/о н/о +21.3 +8.6 44 +22 +22 комфорт 1016.5 1013.1
20 11.07 ЮВ 4 н/о н/о +21.7 +8.2 42 +23 +23 комфорт 1016.5 1013.1
21 11.07 ЮВ 4 н/о н/о +22.6 +6.8 36 +23 +23 комфорт 1016.9 1013.5
23 11.07 В 4 н/о н/о +24.1 +7.3 34 +24 +24 комфорт 1017.8 1014.4
00 12.07 В 5 н/о н/о +26.5 +10.2 36 +27 +27 жарко 1018.3 1014.9
02 12.07 СВ 5 н/о н/о +29.1 +10.7 32 +29 +29 жарко 1017.3 1013.9 +20.1
03 12.07 В 5 н/о н/о +30.3 +10.3 29 +30 +30 жарко 1015.9 1012.5
05 12.07 В 5 н/о н/о +31.8 +9.3 25 +31 +31 жарко 1013.6 1010.2
06 12.07 ЮЗ 4 н/о н/о +29.4 +12.3 35 +30 +30 жарко 1013.1 1009.7
08 12.07 ЮЗ 4 н/о н/о +28.0 +12.4 38 +29 +29 жарко 1013.5 1010.1
09 12.07 ЮЗ 3 н/о н/о +26.1 +12.9 44 +28 +28 жарко 1014.0 1010.6
11 12.07 ЮЗ 2 н/о н/о +25.0 +14.8 53 +28 +28 жарко 1015.6 1012.2
12 12.07 ЮЗ 2 н/о н/о +24.7 +15.6 57 +28 +28 душно 1016.2 1012.8
14 12.07 штиль 0 н/о н/о +23.7 +16.2 63 +27 +27 жарко 1016.4 1013.0 +32.9
15 12.07 ЮВ 1 н/о н/о +23.5 +16.3 64 +27 +27 душно 1016.2 1012.8
17 12.07 ЮВ 4 н/о н/о +26.8 +9.6 34 +27 +27 жарко 1015.8 1012.4
18 12.07 ЮВ 4 н/о н/о +26.0 +8.5 33 +26 +26 жарко 1015.8 1012.4
20 12.07 ЮВ 4 н/о н/о +25.5 +5.1 27 +25 +25 комфорт 1016.0 1012.6
21 12.07 В 2 н/о н/о +24.7 +4.5 27 +24 +24 комфорт 1016.6 1013.2
23 12.07 ЮВ 4 н/о н/о +24.9 +4.6 27 +24 +24 комфорт 1017.4 1014.0
00 13.07 В 5 н/о н/о +26.8 +5.7 26 +26 +26 жарко 1018.2 1014.8
02 13.07 В 6 н/о н/о +28.7 +4.9 22 +27 +27 жарко 1017.3 1013.9 +23.3
03 13.07 ЮВ 6 н/о н/о +29.6 +4.3 20 +28 +28 жарко 1016.3 1012.9
05 13.07 ЮВ 7 н/о н/о +31.6 +0.9 14 +29 +29 жарко 1014.2 1010.8
06 13.07 ЮВ 7 н/о н/о +31.4 -0.3 13 +28 +28 жарко 1013.5 1010.1
08 13.07 ЮВ 5 н/о н/о +30.7 -0.8 13 +28 +28 жарко 1013.7 1010.3
09 13.07 ЮВ 5 н/о н/о +29.0 -1.2 14 +26 +26 жарко 1014.2 1010.8
11 13.07 Ю 3 н/о н/о +25.0 +1.8 22 +24 +24 комфорт 1015.5 1012.1
12 13.07 Ю 3 н/о н/о +24.1 +2.3 24 +23 +23 комфорт 1016.1 1012.7
14 13.07 Ю 3 н/о н/о +22.6 +4.2 30 +23 +23 комфорт 1016.7 1013.3 +32.6
15 13.07 ЮВ 3 н/о н/о +22.1 +2.8 28 +22 +22 комфорт 1016.4 1013.0
17 13.07 ЮВ 5 н/о н/о +23.1 -1.1 20 +22 +22 комфорт 1016.2 1012.8
18 13.07 ЮВ 5 н/о н/о +22.3 -1.1 21 +21 +21 комфорт 1016.2 1012.8
20 13.07 В 5 н/о н/о +21.7 -0.9 22 +21 +21 комфорт 1016.8 1013.4
21 13.07 В 5 н/о н/о +21.0 -0.3 24 +21 +21 комфорт 1017.0 1013.6
23 13.07 ЮВ 6 н/о н/о +21.8 -0.2 23 +21 +21 комфорт 1018.0 1014.6
00 14.07 В 7 н/о н/о +23.3 +1.0 23 +22 +22 комфорт 1018.2 1014.8
02 14.07 ЮВ 7 н/о н/о +26.1 +0.7 19 +24 +24 комфорт 1017.4 1014.0 +20.5
03 14.07 ЮВ 6 н/о н/о +27.2 +1.6 19 +25 +25 комфорт 1016.6 1013.2
05 14.07 В 7 н/о н/о +27.8 -0.3 16 +25 +25 комфорт 1014.6 1011.2
06 14.07 ЮВ 7 н/о н/о +28.2 -0.9 15 +26 +26 жарко 1013.8 1010.4
08 14.07 ЮВ 5 н/о н/о +27.9 -0.2 16 +26 +26 жарко 1013.7 1010.3
09 14.07 ЮВ 4 н/о н/о +26.4 +0.2 18 +25 +25 комфорт 1014.5 1011.1
11 14.07 Ю 3 н/о н/о +22.1 +2.2 27 +22 +22 комфорт 1016.4 1013.0
12 14.07 ЮВ 4 н/о н/о +22.4 +3.0 28 +22 +22 комфорт 1017.0 1013.6
14 14.07 ЮВ 3 н/о н/о +21.3 +2.6 29 +21 +21 комфорт 1017.4 1014.0 +29.8
15 14.07 ЮВ 4 н/о н/о +20.2 +2.1 30 +21 +21 комфорт 1017.3 1013.9
17 14.07 ЮВ 6 н/о н/о +20.5 +0.4 26 +20 +20 1017.1 1013.7
18 14.07 ЮВ 6 н/о н/о +20.4 +0.3 26 +20 +20 1016.6 1013.2
20 14.07 В 5 н/о н/о +19.1 -0.3 27 +19 +19 1017.0 1013.6
21 14.07 В 5 н/о н/о +18.5 -0.3 28 +18 +18 1017.1 1013.7
23 14.07 В 5 н/о н/о +19.6 -0.9 25 +20 +20 1017.9 1014.5
00 15.07 В 7 н/о н/о +21.3 -1.9 21 +21 +21 комфорт 1018.0 1014.6
02 15.07 В 6 н/о н/о +24.6 -1.3 18 +23 +23 комфорт 1017.1 1013.7 +18.0
03 15.07 В 7 н/о н/о +25.5 -1.3 17 +24 +24 комфорт 1016.3 1012.9
05 15.07 ЮВ 6 н/о н/о +27.1 -0.9 16 +25 +25 комфорт 1014.1 1010.7
06 15.07 ЮВ 6 н/о н/о +27.1 -0.9 16 +25 +25 комфорт 1013.3 1009.9
08 15.07 ЮВ 6 н/о н/о +26.8 -1.1 16 +25 +25 комфорт 1012.9 1009.5
09 15.07 ЮВ 4 н/о н/о +25.7 -1.2 17 +24 +24 комфорт 1013.7 1010.3
11 15.07 ЮВ 5 н/о н/о +23.9 -2.6 17 +22 +22 комфорт 1015.1 1011.7
12 15.07 ЮВ 4 н/о н/о +23.3 -2.3 18 +22 +22 комфорт 1015.6 1012.2
14 15.07 Ю 3 н/о н/о +20.1 +0.5 27 +21 +21 комфорт 1016.4 1013.0 +28.4
15 15.07 Ю 3 н/о н/о +19.7 +0.7 28 +20 +20 1016.4 1013.0
17 15.07 Ю 3 н/о н/о +20.2 -1.0 24 +20 +20 1016.2 1012.8
18 15.07 ЮВ 5 н/о н/о +20.4 -3.3 20 +20 +20 1015.8 1012.4
20 15.07 ЮВ 4 н/о н/о +19.5 -4.7 19 +19 +19 1016.1 1012.7
21 15.07 ЮВ 3 н/о н/о +18.8 -4.6 20 +19 +19 1016.3 1012.9
23 15.07 ЮВ 3 н/о н/о +20.7 -4.4 18 +21 +21 комфорт 1017.4 1014.0
00 16.07 ЮВ 5 н/о н/о +22.9 -5.1 15 +21 +21 комфорт 1017.5 1014.1
02 16.07 ЮВ 5 н/о н/о +25.9 -4.6 13 +23 +23 комфорт 1016.5 1013.1 +18.2
03 16.07 ЮВ 5 н/о н/о +26.8 -3.9 13 +24 +24 комфорт 1015.6 1012.2
05 16.07 ЮВ 5 н/о н/о +28.4 -3.7 12 +25 +25 комфорт 1013.8 1010.4
06 16.07 ЮВ 5 н/о н/о +29.0 -3.2 12 +26 +26 жарко 1013.0 1009.6
08 16.07 Ю 4 н/о н/о +27.6 +0.4 17 +25 +25 комфорт 1013.2 1009.8
09 16.07 Ю 3 н/о н/о +25.4 +2.2 22 +24 +24 комфорт 1013.8 1010.4
11 16.07 Ю 3 н/о н/о +22.5 +3.6 29 +22 +22 комфорт 1015.0 1011.6
12 16.07 Ю 3 н/о н/о +22.8 +3.4 28 +23 +23 комфорт 1015.7 1012.3
14 16.07 Ю 3 н/о н/о +22.2 +1.3 25 +22 +22 комфорт 1015.8 1012.4 +30.2
15 16.07 ЮВ 4 н/о н/о +22.4 -1.0 21 +21 +21 комфорт 1015.4 1012.0
17 16.07 ЮВ 5 н/о н/о +21.9 -2.7 19 +21 +21 комфорт 1014.7 1011.3
18 16.07 ЮВ 5 н/о н/о +21.5 -3.1 19 +21 +21 комфорт 1014.5 1011.1
20 16.07 ЮВ 4 н/о н/о +20.1 -2.3 22 +20 +20 1014.9 1011.5
21 16.07 ЮВ 4 н/о н/о +19.5 -1.6 24 +20 +20 1015.2 1011.8
23 16.07 В 2 н/о н/о +20.7 0.0 25 +21 +21 комфорт 1016.6 1013.2
00 17.07 В 4 н/о н/о +22.4 -1.6 20 +21 +21 комфорт 1016.6 1013.2
03 17.07 ЮВ 4 н/о н/о +27.8 -2.1 14 +25 +25 комфорт 1014.7 1011.3

 

Местоположение метеостанции Порт Китс (Северная территория, Австралия): широта -14.25 долгота 129.53 высота над уровнем моря 29 м.

В архиве по умолчанию представлена погода в Порт Китс за последнюю неделю. Архивные данные за месяц целиком и за предыдущие месяцы, начиная с января 2011 года, Вы можете получить, выбрав интересующий диапазон дат из раскрывающегося списка и нажав кнопку "Ввод!".


*Определитесь, кто Вы:
робот инопланетянин человек

Внимание! Время в таблицах - всемирное. Для получения местного времени необходимо прибавить поправку, которая равна 9.5 ч.

Смотрите также архив погоды в соседних городах и на ближайших метеорологических станциях:

Погода в Манбуллу Ксиро (Северная территория, Австралия) (157 км)
Погода на Маяке Кейп-Дон (Северная территория, Австралия) (184 км)
Погода в Кунунарре (Западная Австралия, Австралия) (192 км)
Погода на Острове Дам-ин-Мирре (Северная территория, Австралия) (202 км)
Погода в Уиндеме (Западная Австралия, Австралия) (203 км)
Погода в Батчелоре (Северная территория, Австралия) (209 км)
Погода в Дарвине (Северная территория, Австралия) (251 км)
Погода в Милд Пойнт (Северная территория, Австралия) (265 км)
Погода на Острове Батерст (Северная территория, Австралия) (280 км)
Погода в Виктория-Ривер (Северная территория, Австралия) (288 км)

Пояснения к столбцам:

Ветер - указаны скорость ветра в м/с - средняя за 10 мин, порывы в срок и между сроками (в фигурных скобках) и направление, откуда дует ветер: С - северный, СВ - северо-восточный, В - восточный, ЮВ - юго-восточный, Ю - южный, ЮЗ - юго-западный, З - западный, СЗ - северо-западный.
Видимость - горизонтальная дальность видимости в метрах или километрах. При видимости от 1 до 10 км при отсутствии осадков обычно наблюдается дымка, при ухудшении видимости до 1 км и менее - туман. В сухую погоду видимость может ухудшаться дымом, пылью или мглою.
Явления - указаны атмосферные явления, наблюдавшиеся в срок или в последний час перед сроком; фигурными скобками обозначены явления, наблюдавшиеся между сроками (за 1-3 часа до срока); квадратными скобками обозначены град или гололедные отложения с указанием их диаметра в мм.
Облачность - указаны через наклонную черту общая и нижняя облачность в баллах и высота нижней границы облаков в метрах; квадратными скобками обозначены формы облаков: Ci - перистые, Cs - перисто-слоистые, Cc - перисто-кучевые, Ac - высококучевые, As - высокослоистые, Sc - слоисто-кучевые, Ns - слоисто-дождевые, Cu - кучевые, Cb - кучево-дождевые. Подробнее классификацию облаков см. в Атласе облаков (PDF).
T - Температура воздуха - температура, измеренная на высоте 2 м над землей.
Td - Температура точки росы - температура, при понижении до которой содержащийся в воздухе водяной пар достигнет насыщения.
f - Относительная влажность воздуха - влажноcть воздуха, измеренная на высоте 2 м над землей.
Te - Эффективная температура - температура, которую ощущает одетый по сезону человек в тени. Характеристика душности погоды. При расчете учитывается влияние влажности воздуха и скорости ветра на теплоощущения человека.
Tes - Эффективная температура на солнце - температура, которую ощущает человек, с поправкой на солнечный нагрев. Характеристика знойности погоды. Зависит от высоты солнца над горизонтом, облачности и скорости ветра. Ночью, в пасмурную погоду, а также при ветре 12 м/с и более поправка равна нулю.
P - Атмосферное давление - приведенное к уровню моря атмосферное давление.
Po - Атмосферное давление - измеренное на уровне метеостанции атмосферное давление.
Tmin - Минимальная температура - минимум температуры воздуха на высоте 2 м над землей.
Tmax - Максимальная температура - максимум температуры воздуха на высоте 2 м над землей.
R - Количество осадков - Количество выпавших осадков за период времени, мм. При наведении курсора мыши на число - период времени, за который выпало указанное количество осадков.
R24 - Количество осадков - Количество выпавших осадков за 24 часа, мм.
S - Снежный покров - Высота снежного покрова, см. При наведении курсора мыши на число - состояние снежного покрова и степень покрытия местности в баллах.